SCP
0 0 0 0 -0 -0 0 0 0 0 0 0 0 0 0 0 0 0 0 0 0 0 0 0 0 0 0 0 0 0 0 0
0 0 -0 -0 -0 -0 -0 -0 0 0 0 0 0 0 0 0 0 0 0 0 0 0 0 0 0 0 0 0 0 0 0 0
0 0 0 0 0 0 0 0 0 0 0 -0 0 0 0 0 0 0 0 0 0 0 0 -0 -0 0 0 0 0 0 0 0
0 0 0 0 0 0 0 0 0 0 0 -0 -0 -0 -0 -0 0 0 0 0 0 0 0 0 0 0 0 -0 0 0 0 0
0 0 0 0 0 0 0 0 -0 -0 -0 -0 -0 -0 -0 -0 -0 -0 -0 0 0 0 0 0 0 0 0 0 0 0 0 0
0 0 0 0 0 0 0 0 0 0 0 0 0 -0 -0 -0 -0 -0 -0 -0 -0 -0 0 0 0 0 0 0 0 0 0 0
0 0 0 0 -0 -0 0 0 0 0 0 0 0 0 0 0 0 -0 -0 -0 -0 -0 -0 -0 -0 -0 0 0 0 0 0 0
0 0 0 0 0 0 0 0 0 0 0 0 0 0 0 0 0 0 0 0 0 -0 -0 -0 -0 -0 0 0 0 0 0 0
0 0 0 0 0 0 0 0 0 0 0 0 0 0 0 0 0 0 0 0 0 0 0 0 0 0 0 0 0 0 0 0
0 0 0 0 0 0 0 0 0 0 0 0 0 0 0 0 0 0 0 0 0 0 0 0 0 0 0 0 0 0 0 0
0 0 0 0 0 0 0 0 0 0 0 0 0 0 0 0 0 0 0 0 0 0 0 0 0 0 0 0 0 0 0 0
0 0 0 0 0 0 0 0 0 0 0 0 0 0 0 0 0 0 0 0 0 0 0 0 0 0 0 0 0 0 0 0
0 0 0 0 0 0 0 0 0 0 0 0 0 0 0 0 0 0 0 0 0 0 0 0 0 0 0 0 0 0 0 0
0 0 0 0 0 0 0 0 0 0 0 0 0 0 0 0 0 0 0 0 0 0 0 0 0 0 0 0 0 0 0 0
0 0 0 0 0 0 0 0 0 0 0 0 0 0 0 0 0 0 0 0 0 0 0 0 0 0 0 0 0 0 0 0
0 0 0 0 0 0 0 0 0 0 0 0 0 0 0 0 0 0 0 0 0 0 0 0 0 0 0 0 0 0 0 0
0 0 0 0 0 0 0 0 0 0 0 0 0 0 0 0 0 0 0 0 0 0 0 0 0 0 -0 -0 -0 -0 -0 0
0 0 0 0 0 0 0 0 0 0 0 0 0 0 0 0 0 0 0 0 0 0 0 0 0 0 0 0 -0 -0 -0 0
0 0 0 0 0 0 0 0 0 0 0 0 0 0 0 0 0 0 0 0 0 0 0 0 0 -0 -0 -0 0 0 0 0
0 0 0 0 0 0 0 0 0 0 0 0 0 0 0 0 0 0 0 0 0 0 0 0 0 0 0 0 0 0 0 0
Wind_Speed_500mb
10 10 12 13 13 15 19 24 26 25 24 24 26 28 31 33 33 34 36 37 37 38 37 34 31 30 33 38 43 49 54 63
9 5 3 6 12 19 23 26 28 30 31 30 29 29 28 31 33 36 38 42 47 50 50 47 44 39 35 36 39 46 52 54
16 10 4 6 14 22 26 31 33 35 37 39 40 42 45 41 42 45 44 42 45 48 51 57 58 54 46 39 37 43 49 50
12 6 2 8 12 17 27 34 37 38 40 44 48 51 53 56 58 60 61 60 58 56 56 57 60 66 66 60 52 47 48 50
13 11 10 14 16 18 28 33 36 40 45 50 54 58 62 65 68 70 71 72 71 72 71 69 68 68 70 73 70 67 61 57
22 17 20 28 31 32 38 45 49 51 55 59 64 69 72 74 76 77 77 78 80 82 82 83 83 81 80 80 76 75 76 75
11 25 29 30 30 33 38 43 51 53 58 65 70 74 77 80 84 87 89 92 95 98 101 103 102 99 96 95 91 90 87 85
18 22 21 20 26 32 36 40 42 52 63 70 71 75 78 84 90 96 100 104 109 113 115 117 116 113 111 109 102 99 98 99
24 21 26 29 34 38 42 47 55 65 68 68 72 77 84 91 96 102 104 108 111 115 117 121 125 124 119 91 80 93 105 107
27 30 31 32 34 40 48 55 62 66 73 77 83 89 91 93 95 97 100 106 109 111 113 107 123 117 95 85 87 95 108 112
34 32 33 36 43 47 51 54 62 73 82 85 87 90 93 94 97 98 97 102 103 109 107 108 114 111 93 87 90 97 100 111
38 35 39 43 46 48 54 63 73 79 84 86 86 89 93 96 95 94 92 90 89 90 88 86 85 88 73 70 73 82 88 92
39 43 43 44 45 51 62 71 77 80 82 82 84 88 89 91 92 85 80 81 83 84 85 81 78 72 63 60 62 69 82 95
46 45 43 43 48 58 67 74 76 78 79 80 84 83 83 84 81 76 74 77 79 79 83 86 87 90 80 71 68 63 69 80
47 43 41 43 51 62 68 71 73 76 77 79 81 82 79 71 67 71 73 76 79 82 89 93 89 85 83 85 89 88 86 89
43 42 41 46 55 61 64 67 69 70 72 75 79 79 75 67 66 66 68 66 74 82 83 87 89 87 79 82 86 84 84 87
45 44 44 52 59 59 60 62 62 67 69 73 76 74 71 72 74 62 62 62 64 68 71 79 80 79 77 77 78 78 78 81
45 43 47 54 55 54 56 54 55 60 65 69 70 68 69 70 73 81 79 72 66 62 63 66 72 75 77 76 70 67 68 75
45 44 49 53 50 51 50 48 49 53 58 63 64 63 62 65 69 72 77 81 87 75 67 64 65 66 67 66 67 75 71 77
46 45 50 52 45 45 43 42 45 50 53 56 58 56 55 59 64 69 72 74 78 80 75 71 63 67 66 54 51 62 71 75
Wind_Direction_500mb
340 346 357 4 27 42 33 29 28 24 22 17 12 7 360 352 347 344 344 346 346 346 341 332 320 309 299 291 279 269 267 265
211 182 64 46 38 37 35 28 21 14 6 360 358 350 343 338 333 330 333 330 332 334 336 334 329 322 314 307 299 287 278 271
193 188 157 41 25 23 16 11 7 1 358 353 349 343 338 334 331 329 324 322 320 318 316 320 322 321 317 311 305 303 297 294
165 171 41 354 359 8 3 355 352 351 348 344 341 336 330 329 327 324 321 320 316 311 308 307 307 309 310 310 310 306 302 300
241 245 277 309 314 322 336 338 334 332 333 334 332 329 325 323 321 319 317 316 314 311 308 306 303 301 300 300 302 302 301 298
234 260 290 300 308 311 317 325 325 322 321 323 322 321 319 317 314 313 312 311 310 307 305 303 301 300 300 297 296 294 292 291
247 263 281 287 289 289 295 299 305 305 308 313 312 312 312 311 311 310 309 307 304 302 301 298 298 298 297 297 296 294 292 287
265 291 290 289 287 283 277 282 286 295 298 305 308 309 309 308 306 305 303 301 300 299 298 297 296 295 294 293 291 288 286 286
288 286 274 275 282 284 287 291 298 302 307 310 310 308 306 304 302 301 301 299 297 295 294 294 292 292 293 293 289 285 283 281
274 277 276 277 275 284 293 301 306 311 313 312 309 308 308 306 305 303 300 298 296 294 292 289 288 288 290 292 291 287 285 283
269 270 273 283 294 300 304 309 313 314 313 312 313 313 312 311 309 307 305 301 299 295 294 292 291 290 290 290 288 287 285 283
263 269 282 292 299 305 311 316 317 315 314 315 316 315 315 314 314 312 310 307 305 303 304 303 301 301 298 294 288 285 286 283
268 279 287 295 303 310 317 319 316 314 315 317 318 318 318 319 318 316 314 311 311 311 311 311 312 311 303 299 291 286 280 280
275 281 289 298 306 314 319 316 315 316 319 320 320 322 326 322 317 317 317 314 311 309 308 314 319 317 312 303 298 293 287 285
276 279 288 297 309 317 316 314 317 318 321 324 325 329 326 323 324 321 319 316 312 310 309 309 309 308 308 305 305 303 297 297
277 283 290 303 313 316 314 314 317 319 324 327 331 327 327 331 331 322 319 310 306 302 302 302 301 301 303 301 298 295 292 292
279 284 297 307 313 313 313 314 317 322 329 332 331 328 334 335 332 332 324 309 305 302 301 301 300 301 302 301 298 296 292 287
279 289 301 307 312 310 311 312 320 326 331 333 330 333 339 337 333 331 335 332 325 315 311 307 306 306 305 303 300 297 296 288
282 297 303 307 311 308 308 313 322 329 332 334 332 339 340 339 336 333 331 327 332 336 326 320 315 314 312 308 303 299 304 296
289 301 304 306 308 304 305 314 326 329 335 335 337 341 342 340 339 339 335 331 329 331 335 337 336 326 320 317 308 310 312 311
Wind_Speed_850mb
10 10 12 13 13 15 19 24 26 25 24 24 26 28 31 33 33 34 36 37 37 38 37 34 31 30 33 38 43 49 54 63
9 5 3 6 12 19 23 26 28 30 31 30 29 29 28 31 33 36 38 42 47 50 50 47 44 39 35 36 39 46 52 54
16 10 4 6 14 22 26 31 33 35 37 39 40 42 45 41 42 45 44 42 45 48 51 57 58 54 46 39 37 43 49 50
12 6 2 8 12 17 27 34 37 38 40 44 48 51 53 56 58 60 61 60 58 56 56 57 60 66 66 60 52 47 48 50
13 11 10 14 16 18 28 33 36 40 45 50 54 58 62 65 68 70 71 72 71 72 71 69 68 68 70 73 70 67 61 57
22 17 20 28 31 32 38 45 49 51 55 59 64 69 72 74 76 77 77 78 80 82 82 83 83 81 80 80 76 75 76 75
11 25 29 30 30 33 38 43 51 53 58 65 70 74 77 80 84 87 89 92 95 98 101 103 102 99 96 95 91 90 87 85
18 22 21 20 26 32 36 40 42 52 63 70 71 75 78 84 90 96 100 104 109 113 115 117 116 113 111 109 102 99 98 99
24 21 26 29 34 38 42 47 55 65 68 68 72 77 84 91 96 102 104 108 111 115 117 121 125 124 119 91 80 93 105 107
27 30 31 32 34 40 48 55 62 66 73 77 83 89 91 93 95 97 100 106 109 111 113 107 123 117 95 85 87 95 108 112
34 32 33 36 43 47 51 54 62 73 82 85 87 90 93 94 97 98 97 102 103 109 107 108 114 111 93 87 90 97 100 111
38 35 39 43 46 48 54 63 73 79 84 86 86 89 93 96 95 94 92 90 89 90 88 86 85 88 73 70 73 82 88 92
39 43 43 44 45 51 62 71 77 80 82 82 84 88 89 91 92 85 80 81 83 84 85 81 78 72 63 60 62 69 82 95
46 45 43 43 48 58 67 74 76 78 79 80 84 83 83 84 81 76 74 77 79 79 83 86 87 90 80 71 68 63 69 80
47 43 41 43 51 62 68 71 73 76 77 79 81 82 79 71 67 71 73 76 79 82 89 93 89 85 83 85 89 88 86 89
43 42 41 46 55 61 64 67 69 70 72 75 79 79 75 67 66 66 68 66 74 82 83 87 89 87 79 82 86 84 84 87
45 44 44 52 59 59 60 62 62 67 69 73 76 74 71 72 74 62 62 62 64 68 71 79 80 79 77 77 78 78 78 81
45 43 47 54 55 54 56 54 55 60 65 69 70 68 69 70 73 81 79 72 66 62 63 66 72 75 77 76 70 67 68 75
45 44 49 53 50 51 50 48 49 53 58 63 64 63 62 65 69 72 77 81 87 75 67 64 65 66 67 66 67 75 71 77
46 45 50 52 45 45 43 42 45 50 53 56 58 56 55 59 64 69 72 74 78 80 75 71 63 67 66 54 51 62 71 75
Wind_Direction_850mb
340 346 357 4 27 42 33 29 28 24 22 17 12 7 360 352 347 344 344 346 346 346 341 332 320 309 299 291 279 269 267 265
211 182 64 46 38 37 35 28 21 14 6 360 358 350 343 338 333 330 333 330 332 334 336 334 329 322 314 307 299 287 278 271
193 188 157 41 25 23 16 11 7 1 358 353 349 343 338 334 331 329 324 322 320 318 316 320 322 321 317 311 305 303 297 294
165 171 41 354 359 8 3 355 352 351 348 344 341 336 330 329 327 324 321 320 316 311 308 307 307 309 310 310 310 306 302 300
241 245 277 309 314 322 336 338 334 332 333 334 332 329 325 323 321 319 317 316 314 311 308 306 303 301 300 300 302 302 301 298
234 260 290 300 308 311 317 325 325 322 321 323 322 321 319 317 314 313 312 311 310 307 305 303 301 300 300 297 296 294 292 291
247 263 281 287 289 289 295 299 305 305 308 313 312 312 312 311 311 310 309 307 304 302 301 298 298 298 297 297 296 294 292 287
265 291 290 289 287 283 277 282 286 295 298 305 308 309 309 308 306 305 303 301 300 299 298 297 296 295 294 293 291 288 286 286
288 286 274 275 282 284 287 291 298 302 307 310 310 308 306 304 302 301 301 299 297 295 294 294 292 292 293 293 289 285 283 281
274 277 276 277 275 284 293 301 306 311 313 312 309 308 308 306 305 303 300 298 296 294 292 289 288 288 290 292 291 287 285 283
269 270 273 283 294 300 304 309 313 314 313 312 313 313 312 311 309 307 305 301 299 295 294 292 291 290 290 290 288 287 285 283
263 269 282 292 299 305 311 316 317 315 314 315 316 315 315 314 314 312 310 307 305 303 304 303 301 301 298 294 288 285 286 283
268 279 287 295 303 310 317 319 316 314 315 317 318 318 318 319 318 316 314 311 311 311 311 311 312 311 303 299 291 286 280 280
275 281 289 298 306 314 319 316 315 316 319 320 320 322 326 322 317 317 317 314 311 309 308 314 319 317 312 303 298 293 287 285
276 279 288 297 309 317 316 314 317 318 321 324 325 329 326 323 324 321 319 316 312 310 309 309 309 308 308 305 305 303 297 297
277 283 290 303 313 316 314 314 317 319 324 327 331 327 327 331 331 322 319 310 306 302 302 302 301 301 303 301 298 295 292 292
279 284 297 307 313 313 313 314 317 322 329 332 331 328 334 335 332 332 324 309 305 302 301 301 300 301 302 301 298 296 292 287
279 289 301 307 312 310 311 312 320 326 331 333 330 333 339 337 333 331 335 332 325 315 311 307 306 306 305 303 300 297 296 288
282 297 303 307 311 308 308 313 322 329 332 334 332 339 340 339 336 333 331 327 332 336 326 320 315 314 312 308 303 299 304 296
289 301 304 306 308 304 305 314 326 329 335 335 337 341 342 340 339 339 335 331 329 331 335 337 336 326 320 317 308 310 312 311